Regional Weather Roundup
Issued by NWS

Home | Current Version | Previous Version | Text Only | Print | Product List | Glossary Off
Versions: 1 2 3 4 5 6 7 8 9 10 11 12 13 14 15 16 17 18 19 20 21 22 23 24 25 26 27 28 29 30 31 32 33 34 35 36 37 38 39 40 41 42 43 44 45 46 47 48 49 50

114
ASUS43 KDTX 140901
RWRMI
MICHIGAN HOURLY REGIONAL WEATHER ROUNDUP
NATIONAL WEATHER SERVICE DETROIT/PONTIAC MI
400 AM EST SUN FEB 14 2016

NOTE: "FAIR" INDICATES FEW OR NO CLOUDS BELOW 12,000 FEET WITH NO
SIGNIFICANT WEATHER AND/OR OBSTRUCTION TO VISIBILITY.

MIZ047>049-052>055-059>063-066>070-074>076-081>083-141000-
SOUTHEAST LOWER MICHIGAN

CITY           SKY/WX    TMP DP  RH WIND       PRES   REMARKS
ADRIAN         CLOUDY     2  -2  83 CALM      30.47S
ALMA           CLOUDY     8   2  75 CALM      30.47S
ANN ARBOR      CLOUDY    -7 -10  87 CALM      30.47S
BAD AXE        CLOUDY    -5  -9  83 CALM      30.45F
CARO           CLOUDY   -11 -15  84 CALM      30.46R
DETROIT CITY   CLEAR      5   0  79 CALM      30.48S
DETROIT        PTCLDY     3  -1  83 CALM      30.49S
FLINT          CLOUDY     0  -6  76 CALM      30.47R
GROSSE ILE     CLEAR      5   1  85 CALM      30.47F
HILLSDALE      CLOUDY     4  -1  82 CALM      30.42S
HOWELL         CLOUDY    -3  -6  85 CALM      30.45R

CITY           SKY/WX    TMP DP  RH WIND       PRES   REMARKS
JACKSON        CLOUDY    -1  -7  75 CALM      30.44S
LAMBERTVILLE   CLOUDY     2  -1  88 CALM      30.49S
LANSING        CLOUDY     3  -3  76 CALM      30.47R
LAPEER         FLURRIES  -6  -9  86 CALM      30.45S
MASON          CLOUDY    -4  -8  82 CALM      30.46R
MONROE         CLEAR      3  -1  84 CALM      30.48S
MT. CLEMENS    MOCLDY     4   0  82 W3        30.46S
PONTIAC        CLOUDY    -2  -8  76 CALM      30.44R
PORT HOPE        N/A      8   0  69 W6        30.43S WCI  -2
PORT HURON     CLOUDY    -4  -8  84 CALM      30.46S
TRI CITIES     CLOUDY    10   2  69 S5        30.47S WCI   2
MIDLAND        CLOUDY     7   2  80 CALM      30.47R
TROY           CLEAR      7   2  83 W5        30.49R WCI  -2
SAGINAW HB     CLOUDY     5   1  85 SW6       30.48R WCI  -6
$$
MIZ043>046-050>051-056>058-064>065-071>073-077>080-141000-
SOUTHWEST LOWER MICHIGAN

CITY           SKY/WX    TMP DP  RH WIND       PRES   REMARKS
BATTLE CREEK   PTCLDY     1  -5  75 CALM      30.45S
BENTON HARBOR  CLOUDY    12   4  70 SE8       30.45F WCI   0
BIG RAPIDS     CLOUDY     3   0  88 CALM      30.42S
COLDWATER      CLOUDY     5   0  80 CALM      30.45S
FREMONT        CLOUDY    11   0  60 E3        30.44F
HOLLAND        CLOUDY    11   2  67 SE7       30.46F WCI   0
GRAND RAPIDS   CLEAR      4  -1  80 S3        30.46S
IONIA          FAIR       4  -2  77 W3        30.45F
KALAMAZOO      CLOUDY    10   0  63 CALM      30.45F
LUDINGTON      CLOUDY    13   4  68 SE5       30.44S WCI   5
MARSHALL       PTCLDY     0  -4  82 CALM      30.45S
MOUNT PLEASANT CLOUDY    11   2  68 CALM      30.45S
MUSKEGON       CLOUDY    13   2  61 SE7       30.46F WCI   3
SOUTH HAVEN    CLOUDY    12   7  79 SE6       30.45F WCI   3
$$
MIZ016>042-141000-
NORTHERN LOWER MICHIGAN

CITY           SKY/WX    TMP DP  RH WIND       PRES   REMARKS
ALPENA         LGT SNOW   3  -2  79 CALM      30.44S
BEAVER ISLAND  CLOUDY    11   5  77 CALM      30.40F
BELLAIRE       FLURRIES  10   7  87 CALM      30.42F
CADILLAC       CLOUDY     0  -5  78 CALM      30.37S
CHARLEVOIX     CLOUDY    11   7  83 SE5       30.43F WCI   3
FRANKFORT      CLOUDY    13   5  71 SE5       30.42F WCI   5
GAYLORD        FLURRIES   3  -2  79 CALM      30.35F
GRAYLING       CLOUDY     3  -2  80 CALM      30.38F
HARBOR SPRINGS LGT SNOW   1  -3  85 NE3       30.41S
HOUGHTON LAKE  CLOUDY     7   3  84 S3        30.39F
MANISTEE       CLOUDY    10   1  67 CALM      30.43F
OSCODA         MOCLDY    -5 -10  77 W8        30.44F WCI -20
PELLSTON       CLOUDY    -7 -12  79 CALM      30.42S
ROGERS CITY    CLOUDY     5   1  82 SW3       30.43S FOG
TRAVERSE CITY  CLOUDY    11   3  70 SW3       30.41F
$$
MIZ007>008-015-141000-
EASTERN UPPER MICHIGAN

CITY           SKY/WX    TMP DP  RH WIND       PRES   REMARKS
KINROSS        CLOUDY    -4  -8  84 E7        30.42S WCI -18
MACKINAC ISLAN LGT SNOW   7   4  86 NE7       30.41S WCI  -4
NEWBERRY       FLURRIES  -6  -8  91 SE7       30.37F WCI -20
S. S. MARIE    CLOUDY    -8 -15  71 E5        30.43F WCI -19
$$
MIZ004>006-011>014-085-141000-
CENTRAL UPPER MICHIGAN

CITY           SKY/WX    TMP DP  RH WIND       PRES   REMARKS
MANISTIQUE     CLOUDY   -12 -17  81 W3        30.39F
ESCANABA       CLOUDY   -11 -15  84 CALM      30.39F
MENOMINEE      CLOUDY    -8 -15  71 CALM      30.39F
SAWYER-GWINN   CLOUDY   -15 -19  80 CALM      30.31F
$$
MIZ001>003-009>011-084-141000-
WESTERN UPPER MICHIGAN

CITY           SKY/WX    TMP DP  RH WIND       PRES   REMARKS
IRON MOUNTAIN  CLOUDY   -17 -24  70 CALM      30.32F
HOUGHTON       FLURRIES   1  -6  72 SW6       30.30F WCI -10
COPPER HARBOR    N/A      5   0  79 SW8       30.34F WCI  -8
IRONWOOD       CLOUDY     0  -6  78 CALM      30.24F
$$

ABBREVIATIONS USED IN REMARKS
   TC - TEMPERATURE IN CELSIUS
  WCI - WIND CHILL INDEX
   HX - HEAT INDEX
  VSB - VISIBILITY





USA.gov is the U.S. government's official web portal to all federal, state and local government web resources and services.